ARIANE 2 DEB, 42482

Orbit data source: Space-Track

ARIANE 2 DEB, 42482 is space debris in HEO originally from a launch on Fri, 27 Jan 1989 UTC launched from the French Guiana (FRGUI). Debris objects in space refer to the collection of defunct objects orbiting the Earth. Examples of debris include non-operational satellites, rocket bodies, and fragments generated from explosions, collisions, or faulty payload assembly.

Loading next visibility...
Identifier
42482, 1989-006CJ
Orbit
HEO
Country
Flag of FRFR
Related business
Manufacturer
EADS/LV
Mission
Spacecraft
Bus & Motor
Unknown
Mass
Unknown
Launch date (UTC)
1989-01-27 (37 years ago)
Launch vehicle
Unknown
Launch site
French Guiana (FRGUI)
Object type
Payload
Rocket body
Debris
Shape & HBR
Unknown shape, 0.2 m
Radar Cross Section
Medium (>0.1 m² and <1 m²)

Expand to show TLE details & history
Last TLE update: 2 days ago

TLE from 2 days ago
0 ARIANE 2 DEB
1 42482U 89006CJ  26170.97856051  .00002217  00000-0  14276-1 0  9993
2 42482  10.2495  64.0383 7109653  55.7331 352.2674  2.36545810 45004
Epoch: 2026-06-19T23:29Z
TLE epoch observation values (Epoch: 2026-06-19T23:29:07.628Z)
Latitude
-0.00004°
Longitude
163.53818°
Altitude
2,004.341 km
Speed
8.851 km/s
True Right ascension
04h 16m 04s
True Declination
0° 00' 00"
Sunlit
Object was in daylight at epoch
Visualization orbit readout
Latitude
Unknown
Longitude
Unknown
Altitude
Unknown
Speed
Unknown
Apparent Right ascension
Unknown
Apparent Declination
Unknown
Sunlit
N/A
Visualization observer readout
Local Sidereal Time
21:35:56
Azimuth
Unknown
Elevation
Unknown
Doppler factor
Unknown
Orbital elements
Apogee altitude
34,340.417 km
Perigee altitude
500.48 km
Semi-major axis
23,798.585 km
Eccentricity
0.71097
Inclination
10.2495°
RAAN
64.0383°
Arg. of periapsis
55.7331°
True anomaly
303.60552°
Mean anomaly
352.2674°
Eccentric anomaly
335.14613°
Mean motion
0.59118 °/min
Orbital period
608.96 mins
BSTAR
0.014276
Loading maneuver chart data...
Computing Atmospheric mass density...
Loading historical data...
Loading historical data...
Loading historical data...
Loading historical data...
Loading historical data...
Loading historical data...
Loading historical data...

Documentation

Showing up to 5 results
|